This is the latest recevied weather packets stored in our database for station/object OE9SAU-10. If no packets are shown the sender has not sent any weather packets the latest 10 day(s).
| Time | Temp. | Humidity | Pressure | Rain* | Wind** | Luminosity | Snow |
|---|---|---|---|---|---|---|---|
| 1777976322 | 17.78° C | 48% | 1012.4 hPa | - | - | - | - |
| 1777975422 | 17.22° C | 48% | 1012.6 hPa | - | - | - | - |
| 1777974522 | 17.22° C | 48% | 1012.6 hPa | - | - | - | - |
| 1777973622 | 17.22° C | 47% | 1012.6 hPa | - | - | - | - |
| 1777972722 | 16.67° C | 47% | 1012.7 hPa | - | - | - | - |
| 1777971822 | 16.67° C | 49% | 1012.8 hPa | - | - | - | - |
| 1777970922 | 16.67° C | 48% | 1012.8 hPa | - | - | - | - |
| 1777970022 | 16.11° C | 50% | 1012.8 hPa | - | - | - | - |
| 1777969122 | 16.11° C | 47% | 1012.9 hPa | - | - | - | - |
| 1777968222 | 15.56° C | 46% | 1013 hPa | - | - | - | - |
| 1777967322 | 15.56° C | 47% | 1013.1 hPa | - | - | - | - |
| 1777966422 | 15° C | 45% | 1013.1 hPa | - | - | - | - |
| 1777965522 | 15° C | 43% | 1013.2 hPa | - | - | - | - |
| 1777964622 | 14.44° C | 44% | 1013.4 hPa | - | - | - | - |
| 1777963721 | 13.89° C | 45% | 1013.5 hPa | - | - | - | - |
| 1777962821 | 13.89° C | 44% | 1013.7 hPa | - | - | - | - |
| 1777961921 | 13.89° C | 46% | 1013.6 hPa | - | - | - | - |
| 1777961021 | 13.33° C | 45% | 1013.6 hPa | - | - | - | - |
| 1777960121 | 12.78° C | 48% | 1013.6 hPa | - | - | - | - |
| 1777959221 | 12.78° C | 44% | 1013.6 hPa | - | - | - | - |
| 1777958321 | 13.33° C | 42% | 1013.5 hPa | - | - | - | - |
| 1777957421 | 13.33° C | 42% | 1013.6 hPa | - | - | - | - |
| 1777956521 | 13.33° C | 40% | 1013.7 hPa | - | - | - | - |
| 1777955621 | 13.33° C | 40% | 1013.6 hPa | - | - | - | - |
| 1777954721 | 13.89° C | 40% | 1013.5 hPa | - | - | - | - |
* Rain since midnight (hover to see other rain measurements)
** Current wind speed in m/s (hover to see current wind gust speed)